Showing default

DIADEME 1, 2674

Orbit data source: Space-Track

DIADEME 1, 2674 is a payload satellite owned by CNES (FR) in LEO that was launched on Wed, 08 Feb 1967 UTC via a DIAMANT A launch vehicle from the Hamma Guira Space Track Range (HGSTR). Payload-class satellites include a variety of spacecraft equipped with specific instruments for various scientific and technological missions. These include communications satellites like Starlink; space stations such as the ISS; scientific satellites like the Hubble; Earth observation satellites from companies like Planet Labs, Umbra, and HawkEye 360; GPS; miniature CubeSats for education and research; and military/defense satellites.

Loading next visibility...
Identifier
2674, 1967-011A
Orbit
LEO
Country
Flag of FRFR
Related business
Manufacturer
CNES
Mission
Spacecraft
Bus & Motor
D-1, Unknown motor
Mass
23 kg wet, 23 kg dry
Launch date (UTC)
1967-02-08 (59 years ago)
Launch vehicle
DIAMANT A
Launch site
Hamma Guira Space Track Range (HGSTR)
Object type
Payload
Rocket body
Debris
Shape & HBR
Unknown
Radar Cross Section
Medium (>0.1 m² and <1 m²)

Expand to show TLE details & history
Last TLE update: 3 hours ago

TLE from 3 hours ago
0 DIADEME 1
1  2674U 67011A   26104.56527949  .00003166  00000-0  35112-3 0  9995
2  2674  39.9166 292.6619 0205356 171.8382 188.5821 14.74211501 80716
Epoch: 2026-04-14T13:34Z
TLE epoch observation values (Epoch: 2026-04-14T13:34:00.147Z)
Latitude
-0.00002°
Longitude
-113.57844°
Altitude
789.806 km
Speed
7.385 km/s
True Right ascension
19h 30m 38s
True Declination
0° 00' 00"
Sunlit
Object was in daylight at epoch
Visualization orbit readout
Latitude
Unknown
Longitude
Unknown
Altitude
Unknown
Speed
Unknown
Apparent Right ascension
Unknown
Apparent Declination
Unknown
Sunlit
N/A
Visualization observer readout
Local Sidereal Time
23:18:05
Azimuth
Unknown
Elevation
Unknown
Doppler factor
Unknown
Orbital elements
Apogee altitude
794.387 km
Perigee altitude
505.731 km
Semi-major axis
7,028.196 km
Eccentricity
0.02054
Inclination
39.9166°
RAAN
292.6619°
Arg. of periapsis
171.8382°
True anomaly
188.23964°
Mean anomaly
188.5821°
Eccentric anomaly
188.41001°
Mean motion
3.68364 °/min
Orbital period
97.73 mins
BSTAR
0.00035112
Loading maneuver chart data...
Computing Atmospheric mass density...

Documentation

Showing up to 5 results
|